Notices

What's New in latest Release from April 7th, 2021:

- Updated Glossary, including Speed of Maximum Gust, and Total Hourly Precipitation

- Updated national and regional climate services offices contacts and prices information

- Addition of station inventory lists for 1981-2010, 1971-2000, and 1961-1990 Normals.

If you haven't already, please take our survey and provide feedback about our website: https://eccc.sondage-survey.ca/f/LanguageSelection.aspx?s=442ca660-fcf1-47c0-95a9-59707d6fd709

Hourly Data Report for January 12, 2021

EDMUNDSTON
NEW BRUNSWICK
Current Station Operator: ECCC - MSC

47°25'00.000" N
68°19'28.040" W
154.20 m
8101303
71590
ERM

Download Data

Hourly Data (January 2021)
Hourly Data Report for January 12, 2021
TIME
LST
Temp Definition
°C
Dew Point Definition
°C
Rel Hum Definition
%
Precip. Amount Definition
mm

Wind Dir Definition
10's deg

Wind Spd Definition
km/h
Visibility Definition
km
Stn Press Definition
kPa
Hmdx Definition


Wind Chill Definition


Weather Definition


00:00 -7.3 LegendMM LegendMM 0.0 27 2   99.86   -8 LegendNANA
01:00 -7.2 LegendMM LegendMM 0.0 26 2   99.79   -8 LegendNANA
02:00 -7.0 LegendMM LegendMM 0.0 0 1   99.78   -8 LegendNANA
03:00 -6.9 LegendMM LegendMM 0.0   0   99.78     LegendNANA
04:00 -6.7 LegendMM LegendMM 0.0   0   99.73     LegendNANA
05:00 -6.7 LegendMM LegendMM 0.0   0   99.69     LegendNANA
06:00 -6.6 LegendMM LegendMM 0.0   0   99.67     LegendNANA
07:00 -6.6 LegendMM LegendMM 0.0   0   99.67     LegendNANA
08:00 -6.5 LegendMM LegendMM 0.0 27 2   99.68   -7 LegendNANA
09:00 -6.5 LegendMM LegendMM 0.0   0   99.71     LegendNANA
10:00 -4.6 LegendMM LegendMM 0.2   0   99.73     LegendNANA
11:00 -3.0 LegendMM LegendMM 0.0 26 5   99.71   -5 LegendNANA
12:00 -1.9 LegendMM LegendMM 0.0 25 3   99.64   -3 LegendNANA
13:00 -0.8 LegendMM LegendMM 0.0 3 3   99.53   -2 LegendNANA
14:00 0.1 LegendMM LegendMM 0.0 30 6   99.51     LegendNANA
15:00 -0.1 LegendMM LegendMM 0.0 29 5   99.53   -2 LegendNANA
16:00 -0.8 LegendMM LegendMM 0.0 31 6   99.57   -3 LegendNANA
17:00 -2.9 LegendMM LegendMM 0.0 30 2   99.57   -4 LegendNANA
18:00 -3.1 LegendMM LegendMM 0.0   0   99.57     LegendNANA
19:00 -3.6 LegendMM LegendMM 0.0   0   99.58     LegendNANA
20:00 -3.8 LegendMM LegendMM 0.0   0   99.59     LegendNANA
21:00 -4.1 LegendMM LegendMM 0.0   0   99.60     LegendNANA
22:00 -4.3 LegendMM LegendMM 0.0 34 2   99.57   -5 LegendNANA
23:00 -4.0 LegendMM LegendMM 0.0 36 2   99.56   -5 LegendNANA

Notes on Data Quality.

Legend

  • E = Estimated
  • M = Missing
  • NA = Not Available*
  • [empty] = Indicates an unobserved value
Date modified: